Wetterdaten: Mittwoch, 23.05.2012
Datum Zeit Temperatur Luftfeuchte Regen Wind Richtung Richtung Taupunkt Windchill Windben
23.05.2012 00:00 11,5 C 92 % 0,0 l/m 0,2 km/h (0 Bft) O 90 10,2 C 11,5 C 0,0 km/h (0 Bft)
23.05.2012 00:05 11,5 C 92 % 0,0 l/m 0,2 km/h (0 Bft) SO 135 10,2 C 11,5 C 1,6 km/h (1 Bft)
23.05.2012 00:10 11,4 C 92 % 0,0 l/m 0,2 km/h (0 Bft) N 360 10,1 C 11,5 C 0,0 km/h (0 Bft)
23.05.2012 00:15 11,4 C 92 % 0,0 l/m 0,0 km/h (0 Bft) NO 45 10,1 C 11,4 C 0,0 km/h (0 Bft)
23.05.2012 00:20 11,4 C 92 % 0,0 l/m 0,2 km/h (0 Bft) N 360 10,1 C 11,3 C 0,0 km/h (0 Bft)
23.05.2012 00:25 11,4 C 92 % 0,0 l/m 0,2 km/h (0 Bft) N-NW 337 10,1 C 11,3 C 8,7 km/h (2 Bft)
23.05.2012 00:30 11,5 C 92 % 0,0 l/m 1,0 km/h (0 Bft) O 90 10,2 C 11,4 C 2,6 km/h (1 Bft)
23.05.2012 00:35 11,5 C 92 % 0,0 l/m 1,1 km/h (1 Bft) O-SO 112 10,2 C 11,5 C 2,4 km/h (1 Bft)
23.05.2012 00:40 11,5 C 92 % 0,0 l/m 1,0 km/h (0 Bft) W-NW 292 10,2 C 11,6 C 0,0 km/h (0 Bft)
23.05.2012 00:45 11,5 C 92 % 0,0 l/m 1,0 km/h (0 Bft) O 90 10,2 C 11,6 C 2,7 km/h (1 Bft)
23.05.2012 00:50 11,5 C 92 % 0,0 l/m 0,5 km/h (0 Bft) N-NO 22 10,2 C 11,6 C 0,0 km/h (0 Bft)
23.05.2012 00:55 11,6 C 93 % 0,0 l/m 0,3 km/h (0 Bft) S-SW 202 10,5 C 11,6 C 0,0 km/h (0 Bft)
23.05.2012 01:00 11,5 C 93 % 0,0 l/m 0,3 km/h (0 Bft) N 360 10,4 C 11,6 C 0,0 km/h (0 Bft)
23.05.2012 01:05 11,6 C 93 % 0,0 l/m 0,5 km/h (0 Bft) NO 45 10,5 C 11,6 C 2,4 km/h (1 Bft)
23.05.2012 01:10 11,6 C 93 % 0,0 l/m 0,5 km/h (0 Bft) N-NW 337 10,5 C 11,6 C 2,9 km/h (1 Bft)
23.05.2012 01:15 11,7 C 93 % 0,0 l/m 0,6 km/h (0 Bft) NO 45 10,6 C 11,6 C 0,0 km/h (0 Bft)
23.05.2012 01:20 11,7 C 93 % 0,0 l/m 0,6 km/h (0 Bft) N 360 10,6 C 11,7 C 1,8 km/h (1 Bft)
23.05.2012 01:25 11,8 C 93 % 0,0 l/m 0,5 km/h (0 Bft) O-SO 112 10,7 C 11,8 C 0,0 km/h (0 Bft)
23.05.2012 01:30 11,8 C 93 % 0,0 l/m 0,6 km/h (0 Bft) W 270 10,7 C 11,9 C 0,0 km/h (0 Bft)
23.05.2012 01:35 11,8 C 93 % 0,0 l/m 0,3 km/h (0 Bft) N-NO 22 10,7 C 11,9 C 0,0 km/h (0 Bft)
23.05.2012 01:40 11,8 C 93 % 0,0 l/m 0,0 km/h (0 Bft) O 90 10,7 C 12,0 C 0,0 km/h (0 Bft)
23.05.2012 01:45 11,9 C 93 % 0,0 l/m 0,0 km/h (0 Bft) N 360 10,8 C 12,0 C 0,0 km/h (0 Bft)
23.05.2012 01:50 11,9 C 93 % 0,0 l/m 0,0 km/h (0 Bft) O 90 10,8 C 12,0 C 0,0 km/h (0 Bft)
23.05.2012 01:55 11,9 C 93 % 0,0 l/m 0,0 km/h (0 Bft) W-NW 292 10,8 C 12,0 C 0,0 km/h (0 Bft)
23.05.2012 02:00 11,9 C 93 % 0,0 l/m 0,2 km/h (0 Bft) NO 45 10,8 C 12,1 C 0,0 km/h (0 Bft)
23.05.2012 02:05 12,0 C 93 % 0,0 l/m 0,3 km/h (0 Bft) SO 135 10,9 C 12,1 C 3,1 km/h (1 Bft)
23.05.2012 02:10 12,1 C 93 % 0,0 l/m 1,0 km/h (0 Bft) S 180 11,0 C 12,3 C 2,1 km/h (1 Bft)
23.05.2012 02:15 12,1 C 93 % 0,0 l/m 0,8 km/h (0 Bft) N-NO 22 11,0 C 12,3 C 0,0 km/h (0 Bft)
23.05.2012 02:20 12,0 C 93 % 0,0 l/m 0,5 km/h (0 Bft) N 360 10,9 C 12,2 C 0,0 km/h (0 Bft)
23.05.2012 02:25 11,9 C 93 % 0,0 l/m 0,5 km/h (0 Bft) NW 315 10,8 C 12,1 C 1,8 km/h (1 Bft)
23.05.2012 02:30 12,0 C 93 % 0,0 l/m 1,0 km/h (0 Bft) O-NO 67 10,9 C 12,1 C 0,0 km/h (0 Bft)
23.05.2012 02:35 12,0 C 93 % 0,0 l/m 1,0 km/h (0 Bft) O-SO 112 10,9 C 12,1 C 1,6 km/h (1 Bft)
23.05.2012 02:40 11,9 C 93 % 0,0 l/m 0,3 km/h (0 Bft) N-NW 337 10,8 C 12,1 C 0,0 km/h (0 Bft)
23.05.2012 02:45 11,9 C 93 % 0,0 l/m 0,3 km/h (0 Bft) S-SW 202 10,8 C 12,0 C 0,0 km/h (0 Bft)
23.05.2012 02:50 11,9 C 93 % 0,0 l/m 0,8 km/h (0 Bft) O 90 10,8 C 12,1 C 0,0 km/h (0 Bft)
23.05.2012 02:55 11,9 C 93 % 0,0 l/m 0,8 km/h (0 Bft) N 360 10,8 C 12,1 C 0,0 km/h (0 Bft)
23.05.2012 03:00 11,8 C 93 % 0,0 l/m 0,6 km/h (0 Bft) S 180 10,7 C 12,1 C 0,0 km/h (0 Bft)
23.05.2012 03:05 11,8 C 93 % 0,0 l/m 0,8 km/h (0 Bft) O-SO 112 10,7 C 12,1 C 2,7 km/h (1 Bft)
23.05.2012 03:10 11,8 C 93 % 0,0 l/m 0,8 km/h (0 Bft) N 360 10,7 C 12,1 C 0,0 km/h (0 Bft)
23.05.2012 03:15 11,9 C 93 % 0,0 l/m 0,6 km/h (0 Bft) NO 45 10,8 C 12,1 C 0,0 km/h (0 Bft)
23.05.2012 03:20 11,9 C 93 % 0,0 l/m 0,0 km/h (0 Bft) NO 45 10,8 C 12,1 C 0,0 km/h (0 Bft)
23.05.2012 03:25 11,9 C 93 % 0,0 l/m 0,0 km/h (0 Bft) O-SO 112 10,8 C 12,1 C 1,8 km/h (1 Bft)
23.05.2012 03:30 12,0 C 93 % 0,0 l/m 0,2 km/h (0 Bft) N 360 10,9 C 12,1 C 0,0 km/h (0 Bft)
23.05.2012 03:35 11,9 C 93 % 0,0 l/m 0,3 km/h (0 Bft) N-NO 22 10,8 C 12,1 C 0,0 km/h (0 Bft)
23.05.2012 03:40 11,9 C 93 % 0,0 l/m 0,3 km/h (0 Bft) O-SO 112 10,8 C 12,2 C 0,0 km/h (0 Bft)
23.05.2012 03:45 12,1 C 93 % 0,0 l/m 0,3 km/h (0 Bft) NO 45 11,0 C 12,3 C 0,0 km/h (0 Bft)
23.05.2012 03:50 12,2 C 93 % 0,0 l/m 0,3 km/h (0 Bft) NO 45 11,1 C 12,3 C 1,8 km/h (1 Bft)
23.05.2012 03:55 12,2 C 93 % 0,0 l/m 0,5 km/h (0 Bft) O 90 11,1 C 12,4 C 1,8 km/h (1 Bft)
23.05.2012 04:00 12,1 C 93 % 0,0 l/m 1,1 km/h (1 Bft) SO 135 11,0 C 12,5 C 0,0 km/h (0 Bft)
23.05.2012 04:05 12,0 C 93 % 0,0 l/m 1,4 km/h (1 Bft) O 90 10,9 C 12,5 C 2,9 km/h (1 Bft)
23.05.2012 04:10 12,2 C 93 % 0,0 l/m 1,4 km/h (1 Bft) SO 135 11,1 C 12,6 C 2,3 km/h (1 Bft)
23.05.2012 04:15 12,3 C 93 % 0,0 l/m 1,9 km/h (1 Bft) O-SO 112 11,2 C 12,6 C 2,1 km/h (1 Bft)
23.05.2012 04:20 12,4 C 93 % 0,0 l/m 2,1 km/h (1 Bft) O 90 11,3 C 12,8 C 4,8 km/h (1 Bft)
23.05.2012 04:25 12,4 C 93 % 0,0 l/m 1,8 km/h (1 Bft) NO 45 11,3 C 12,8 C 6,8 km/h (2 Bft)
23.05.2012 04:30 12,3 C 93 % 0,0 l/m 1,4 km/h (1 Bft) NO 45 11,2 C 12,8 C 0,0 km/h (0 Bft)
23.05.2012 04:35 12,3 C 93 % 0,0 l/m 1,1 km/h (1 Bft) N 360 11,2 C 12,8 C 0,0 km/h (0 Bft)
23.05.2012 04:40 12,3 C 93 % 0,0 l/m 0,6 km/h (0 Bft) N-NW 337 11,2 C 12,7 C 0,0 km/h (0 Bft)
23.05.2012 04:45 12,3 C 93 % 0,0 l/m 1,0 km/h (0 Bft) N 360 11,2 C 12,7 C 0,0 km/h (0 Bft)
23.05.2012 04:50 12,3 C 93 % 0,0 l/m 1,0 km/h (0 Bft) N 360 11,2 C 12,6 C 0,0 km/h (0 Bft)
23.05.2012 04:55 12,4 C 93 % 0,0 l/m 1,0 km/h (0 Bft) O 90 11,3 C 12,6 C 3,5 km/h (1 Bft)
23.05.2012 05:00 12,3 C 93 % 0,0 l/m 0,6 km/h (0 Bft) N 360 11,2 C 12,5 C 0,0 km/h (0 Bft)
23.05.2012 05:05 12,3 C 93 % 0,0 l/m 0,5 km/h (0 Bft) SO 135 11,2 C 12,3 C 0,0 km/h (0 Bft)
23.05.2012 05:10 12,3 C 93 % 0,0 l/m 0,0 km/h (0 Bft) S-SO 157 11,2 C 12,3 C 0,0 km/h (0 Bft)
23.05.2012 05:15 12,2 C 93 % 0,7 l/m 0,0 km/h (0 Bft) N 360 11,1 C 12,3 C 0,0 km/h (0 Bft)
23.05.2012 05:20 12,2 C 93 % 0,0 l/m 0,0 km/h (0 Bft) N 360 11,1 C 12,2 C 2,1 km/h (1 Bft)
23.05.2012 05:25 12,2 C 93 % 0,0 l/m 0,0 km/h (0 Bft) N-NW 337 11,1 C 12,2 C 0,0 km/h (0 Bft)
23.05.2012 05:30 12,2 C 93 % 0,0 l/m 0,0 km/h (0 Bft) W-SW 247 11,1 C 12,2 C 0,0 km/h (0 Bft)
23.05.2012 05:35 12,2 C 94 % 0,0 l/m 0,0 km/h (0 Bft) O-SO 112 11,3 C 12,2 C 0,0 km/h (0 Bft)
23.05.2012 05:40 12,2 C 94 % 0,0 l/m 0,0 km/h (0 Bft) N 360 11,3 C 12,2 C 0,0 km/h (0 Bft)
23.05.2012 05:45 12,2 C 94 % 0,0 l/m 0,0 km/h (0 Bft) N-NO 22 11,3 C 12,2 C 0,0 km/h (0 Bft)
23.05.2012 05:50 12,3 C 94 % 0,0 l/m 0,5 km/h (0 Bft) O-SO 112 11,4 C 12,2 C 3,7 km/h (1 Bft)
23.05.2012 05:55 12,3 C 94 % 0,0 l/m 1,1 km/h (1 Bft) NO 45 11,4 C 12,3 C 0,0 km/h (0 Bft)
23.05.2012 06:00 12,3 C 94 % 0,0 l/m 1,1 km/h (1 Bft) O-SO 112 11,4 C 12,3 C 0,0 km/h (0 Bft)
23.05.2012 06:05 12,3 C 94 % 0,0 l/m 0,3 km/h (0 Bft) N 360 11,4 C 12,4 C 0,0 km/h (0 Bft)
23.05.2012 06:10 12,4 C 94 % 0,0 l/m 1,0 km/h (0 Bft) SO 135 11,5 C 12,5 C 2,1 km/h (1 Bft)
23.05.2012 06:15 12,4 C 94 % 0,0 l/m 1,4 km/h (1 Bft) S-SO 157 11,5 C 12,5 C 0,0 km/h (0 Bft)
23.05.2012 06:20 12,4 C 94 % 0,0 l/m 1,3 km/h (1 Bft) SW 225 11,5 C 12,5 C 3,4 km/h (1 Bft)
23.05.2012 06:25 12,5 C 94 % 0,0 l/m 1,6 km/h (1 Bft) NO 45 11,6 C 12,5 C 10,0 km/h (2 Bft)
23.05.2012 06:30 12,5 C 94 % 0,0 l/m 2,1 km/h (1 Bft) O-SO 112 11,6 C 12,6 C 2,4 km/h (1 Bft)
23.05.2012 06:35 12,6 C 94 % 0,0 l/m 1,8 km/h (1 Bft) O-SO 112 11,7 C 12,7 C 4,5 km/h (1 Bft)
23.05.2012 06:40 12,7 C 94 % 0,0 l/m 1,0 km/h (0 Bft) SW 225 11,8 C 12,8 C 0,0 km/h (0 Bft)
23.05.2012 06:45 12,7 C 94 % 0,0 l/m 1,6 km/h (1 Bft) O 90 11,8 C 12,9 C 2,4 km/h (1 Bft)
23.05.2012 06:50 12,8 C 94 % 0,0 l/m 2,3 km/h (1 Bft) O-SO 112 11,9 C 13,0 C 4,3 km/h (1 Bft)
23.05.2012 06:55 12,8 C 94 % 0,0 l/m 1,9 km/h (1 Bft) O-SO 112 11,9 C 13,1 C 2,1 km/h (1 Bft)
23.05.2012 07:00 13,0 C 93 % 0,0 l/m 1,4 km/h (1 Bft) NO 45 11,9 C 13,2 C 0,0 km/h (0 Bft)
23.05.2012 07:05 13,3 C 93 % 0,0 l/m 1,4 km/h (1 Bft) O-SO 112 12,2 C 13,4 C 4,0 km/h (1 Bft)
23.05.2012 07:10 13,9 C 93 % 0,0 l/m 1,3 km/h (1 Bft) SO 135 12,8 C 14,2 C 4,3 km/h (1 Bft)
23.05.2012 07:15 13,8 C 93 % 0,0 l/m 2,3 km/h (1 Bft) NO 45 12,7 C 14,3 C 3,1 km/h (1 Bft)
23.05.2012 07:20 13,6 C 93 % 0,0 l/m 1,9 km/h (1 Bft) N-NO 22 12,5 C 14,2 C 2,1 km/h (1 Bft)
23.05.2012 07:25 13,6 C 93 % 0,0 l/m 0,8 km/h (0 Bft) SO 135 12,5 C 14,2 C 1,9 km/h (1 Bft)
23.05.2012 07:30 13,5 C 93 % 0,0 l/m 1,1 km/h (1 Bft) SO 135 12,4 C 14,1 C 1,8 km/h (1 Bft)
23.05.2012 07:35 13,5 C 93 % 0,0 l/m 1,1 km/h (1 Bft) O 90 12,4 C 14,1 C 0,0 km/h (0 Bft)
23.05.2012 07:40 13,6 C 93 % 0,0 l/m 0,2 km/h (0 Bft) O 90 12,5 C 14,2 C 0,0 km/h (0 Bft)
23.05.2012 07:45 13,9 C 93 % 0,0 l/m 0,3 km/h (0 Bft) SO 135 12,8 C 14,3 C 2,7 km/h (1 Bft)
23.05.2012 07:50 14,3 C 93 % 0,0 l/m 1,6 km/h (1 Bft) SO 135 13,2 C 14,7 C 0,0 km/h (0 Bft)
23.05.2012 07:55 14,4 C 93 % 0,0 l/m 1,9 km/h (1 Bft) SO 135 13,3 C 14,9 C 1,8 km/h (1 Bft)
23.05.2012 08:00 14,4 C 93 % 0,0 l/m 1,3 km/h (1 Bft) S 180 13,3 C 14,9 C 2,4 km/h (1 Bft)
23.05.2012 08:05 14,4 C 93 % 0,0 l/m 1,9 km/h (1 Bft) O-SO 112 13,3 C 14,9 C 2,6 km/h (1 Bft)
23.05.2012 08:10 14,3 C 93 % 0,0 l/m 2,1 km/h (1 Bft) SO 135 13,2 C 14,8 C 3,1 km/h (1 Bft)
23.05.2012 08:15 14,3 C 93 % 0,0 l/m 2,1 km/h (1 Bft) SO 135 13,2 C 14,8 C 3,1 km/h (1 Bft)
23.05.2012 08:20 14,7 C 93 % 0,0 l/m 1,4 km/h (1 Bft) O-SO 112 13,6 C 14,9 C 1,9 km/h (1 Bft)
23.05.2012 08:25 14,9 C 93 % 0,0 l/m 1,0 km/h (0 Bft) O-SO 112 13,8 C 15,2 C 3,7 km/h (1 Bft)
23.05.2012 08:30 14,9 C 92 % 0,0 l/m 1,4 km/h (1 Bft) O-SO 112 13,6 C 15,5 C 0,0 km/h (0 Bft)
23.05.2012 08:35 14,9 C 92 % 0,0 l/m 1,9 km/h (1 Bft) NW 315 13,6 C 15,6 C 0,0 km/h (0 Bft)
23.05.2012 08:40 14,8 C 92 % 0,0 l/m 2,3 km/h (1 Bft) SO 135 13,5 C 15,4 C 3,7 km/h (1 Bft)
23.05.2012 08:45 14,7 C 92 % 0,0 l/m 2,9 km/h (1 Bft) O-SO 112 13,4 C 15,3 C 2,9 km/h (1 Bft)
23.05.2012 08:50 14,6 C 92 % 0,0 l/m 3,1 km/h (1 Bft) O-SO 112 13,3 C 15,2 C 5,1 km/h (1 Bft)
23.05.2012 08:55 14,9 C 92 % 0,0 l/m 3,1 km/h (1 Bft) O-SO 112 13,6 C 15,2 C 5,6 km/h (1 Bft)
23.05.2012 09:00 15,4 C 91 % 0,0 l/m 3,5 km/h (1 Bft) O-SO 112 13,9 C 15,5 C 3,4 km/h (1 Bft)
23.05.2012 09:05 17,3 C 89 % 0,0 l/m 4,2 km/h (1 Bft) O-SO 112 15,5 C 16,2 C 7,7 km/h (2 Bft)
23.05.2012 09:10 16,4 C 87 % 0,0 l/m 4,7 km/h (1 Bft) SO 135 14,2 C 17,3 C 5,0 km/h (1 Bft)
23.05.2012 09:15 15,7 C 87 % 0,0 l/m 4,8 km/h (1 Bft) S-SO 157 13,5 C 17,0 C 7,4 km/h (2 Bft)
23.05.2012 09:20 15,5 C 88 % 0,0 l/m 3,7 km/h (1 Bft) SO 135 13,5 C 16,4 C 3,4 km/h (1 Bft)
23.05.2012 09:26 15,0 C 87 % 0,0 l/m 3,9 km/h (1 Bft) O-NO 67 12,9 C 15,7 C 3,2 km/h (1 Bft)
23.05.2012 09:30 15,0 C 87 % 0,0 l/m 3,9 km/h (1 Bft) O-NO 67 12,9 C 15,7 C 3,2 km/h (1 Bft)
23.05.2012 09:35 15,1 C 88 % 0,0 l/m 4,0 km/h (1 Bft) O-SO 112 13,1 C 15,6 C 5,6 km/h (1 Bft)
23.05.2012 09:40 15,1 C 88 % 0,0 l/m 4,5 km/h (1 Bft) S 180 13,1 C 15,5 C 4,3 km/h (1 Bft)
23.05.2012 09:45 15,1 C 88 % 0,0 l/m 4,5 km/h (1 Bft) S-SO 157 13,1 C 15,4 C 12,6 km/h (3 Bft)
23.05.2012 09:50 15,1 C 88 % 0,0 l/m 4,8 km/h (1 Bft) SO 135 13,1 C 15,5 C 6,6 km/h (2 Bft)
23.05.2012 09:55 15,8 C 88 % 0,0 l/m 4,3 km/h (1 Bft) SO 135 13,8 C 15,6 C 2,3 km/h (1 Bft)
23.05.2012 10:00 17,0 C 85 % 0,0 l/m 3,7 km/h (1 Bft) O-SO 112 14,5 C 16,7 C 10,8 km/h (2 Bft)
23.05.2012 10:05 17,2 C 84 % 0,0 l/m 4,3 km/h (1 Bft) O-SO 112 14,5 C 17,2 C 10,1 km/h (2 Bft)
23.05.2012 10:10 16,7 C 83 % 0,0 l/m 6,1 km/h (2 Bft) S-SO 157 13,8 C 17,7 C 7,2 km/h (2 Bft)
23.05.2012 10:15 16,3 C 83 % 0,0 l/m 6,3 km/h (2 Bft) S 180 13,4 C 17,1 C 15,4 km/h (3 Bft)
23.05.2012 10:20 17,7 C 84 % 0,0 l/m 6,0 km/h (2 Bft) O-SO 112 15,0 C 17,2 C 8,4 km/h (2 Bft)
23.05.2012 10:25 17,6 C 82 % 0,0 l/m 5,3 km/h (1 Bft) O-SO 112 14,5 C 17,9 C 8,7 km/h (2 Bft)
23.05.2012 10:30 17,0 C 83 % 0,0 l/m 4,8 km/h (1 Bft) O-SO 112 14,1 C 17,9 C 4,3 km/h (1 Bft)
23.05.2012 10:35 17,1 C 82 % 0,0 l/m 4,7 km/h (1 Bft) SO 135 14,0 C 17,8 C 3,9 km/h (1 Bft)
23.05.2012 10:40 17,4 C 82 % 0,0 l/m 5,3 km/h (1 Bft) O-SO 112 14,3 C 17,8 C 4,7 km/h (1 Bft)
23.05.2012 10:45 18,6 C 79 % 0,0 l/m 5,3 km/h (1 Bft) SO 135 14,9 C 18,5 C 4,0 km/h (1 Bft)
23.05.2012 10:50 18,7 C 76 % 0,0 l/m 4,7 km/h (1 Bft) O-SO 112 14,4 C 19,8 C 5,6 km/h (1 Bft)
23.05.2012 10:55 18,8 C 77 % 0,0 l/m 4,7 km/h (1 Bft) SO 135 14,7 C 19,5 C 11,4 km/h (2 Bft)
23.05.2012 11:00 20,8 C 72 % 0,0 l/m 5,5 km/h (1 Bft) O-SO 112 15,6 C 20,9 C 8,0 km/h (2 Bft)
23.05.2012 11:05 19,5 C 74 % 0,0 l/m 5,0 km/h (1 Bft) S 180 14,7 C 21,0 C 1,6 km/h (1 Bft)
23.05.2012 11:10 18,6 C 76 % 0,0 l/m 4,2 km/h (1 Bft) O-SO 112 14,3 C 20,5 C 5,5 km/h (1 Bft)
23.05.2012 11:15 19,0 C 77 % 0,0 l/m 3,5 km/h (1 Bft) O-SO 112 14,9 C 20,1 C 6,1 km/h (2 Bft)
23.05.2012 11:20 18,9 C 78 % 0,0 l/m 3,7 km/h (1 Bft) O-SO 112 15,0 C 19,8 C 6,1 km/h (2 Bft)
23.05.2012 11:25 18,3 C 77 % 0,0 l/m 4,5 km/h (1 Bft) SO 135 14,2 C 19,6 C 7,2 km/h (2 Bft)
23.05.2012 11:30 18,0 C 76 % 0,0 l/m 4,8 km/h (1 Bft) S 180 13,7 C 19,0 C 3,9 km/h (1 Bft)
23.05.2012 11:35 18,1 C 77 % 0,0 l/m 4,2 km/h (1 Bft) S 180 14,0 C 18,8 C 3,5 km/h (1 Bft)
23.05.2012 11:40 19,2 C 75 % 0,0 l/m 3,9 km/h (1 Bft) SO 135 14,7 C 19,1 C 6,3 km/h (2 Bft)
23.05.2012 11:45 20,4 C 72 % 0,0 l/m 4,2 km/h (1 Bft) SO 135 15,2 C 20,0 C 5,8 km/h (2 Bft)
23.05.2012 11:50 21,6 C 67 % 0,0 l/m 4,7 km/h (1 Bft) S 180 15,2 C 21,5 C 6,9 km/h (2 Bft)
23.05.2012 11:55 21,4 C 67 % 0,0 l/m 5,0 km/h (1 Bft) S 180 15,0 C 21,8 C 8,7 km/h (2 Bft)
23.05.2012 12:00 21,6 C 66 % 0,0 l/m 5,6 km/h (1 Bft) S 180 15,0 C 22,1 C 2,9 km/h (1 Bft)
23.05.2012 12:05 21,6 C 67 % 0,0 l/m 4,5 km/h (1 Bft) SO 135 15,2 C 22,4 C 7,7 km/h (2 Bft)
23.05.2012 12:10 20,4 C 62 % 0,0 l/m 3,1 km/h (1 Bft) SO 135 12,9 C 22,3 C 5,8 km/h (2 Bft)
23.05.2012 12:15 20,1 C 65 % 0,0 l/m 3,5 km/h (1 Bft) S-SO 157 13,3 C 21,9 C 2,9 km/h (1 Bft)
23.05.2012 12:20 20,8 C 65 % 0,0 l/m 2,1 km/h (1 Bft) SO 135 14,0 C 22,0 C 2,7 km/h (1 Bft)
23.05.2012 12:25 21,7 C 61 % 0,0 l/m 1,0 km/h (0 Bft) S-SO 157 13,8 C 22,6 C 1,6 km/h (1 Bft)
23.05.2012 12:30 21,8 C 58 % 0,0 l/m 1,6 km/h (1 Bft) S 180 13,2 C 23,4 C 7,9 km/h (2 Bft)
23.05.2012 12:35 22,3 C 59 % 0,0 l/m 3,2 km/h (1 Bft) O-SO 112 13,9 C 23,2 C 5,3 km/h (1 Bft)
23.05.2012 12:40 22,9 C 58 % 0,0 l/m 4,7 km/h (1 Bft) S 180 14,2 C 22,8 C 11,6 km/h (2 Bft)
23.05.2012 12:45 22,7 C 56 % 0,0 l/m 5,3 km/h (1 Bft) S 180 13,5 C 22,3 C 6,6 km/h (2 Bft)
23.05.2012 12:50 23,0 C 55 % 0,0 l/m 6,6 km/h (2 Bft) S 180 13,5 C 21,8 C 4,8 km/h (1 Bft)
23.05.2012 12:55 23,5 C 55 % 0,0 l/m 5,5 km/h (1 Bft) S 180 13,9 C 22,0 C 5,5 km/h (1 Bft)
23.05.2012 13:00 21,7 C 58 % 0,0 l/m 3,5 km/h (1 Bft) N-NO 22 13,1 C 22,2 C 0,0 km/h (0 Bft)
23.05.2012 13:05 21,7 C 58 % 0,0 l/m 2,7 km/h (1 Bft) S 180 13,1 C 22,7 C 3,9 km/h (1 Bft)
23.05.2012 13:10 22,2 C 57 % 0,0 l/m 2,3 km/h (1 Bft) W-SW 247 13,3 C 23,1 C 3,4 km/h (1 Bft)
23.05.2012 13:15 21,3 C 57 % 0,0 l/m 3,2 km/h (1 Bft) W-NW 292 12,4 C 23,3 C 7,9 km/h (2 Bft)
23.05.2012 13:20 21,5 C 59 % 0,0 l/m 4,3 km/h (1 Bft) O-SO 112 13,1 C 22,8 C 2,4 km/h (1 Bft)
23.05.2012 13:25 21,4 C 59 % 0,0 l/m 5,0 km/h (1 Bft) S 180 13,0 C 22,6 C 11,7 km/h (2 Bft)
23.05.2012 13:30 20,3 C 63 % 0,0 l/m 5,8 km/h (2 Bft) O-SO 112 13,0 C 21,6 C 5,6 km/h (1 Bft)
23.05.2012 13:35 19,9 C 64 % 0,0 l/m 6,3 km/h (2 Bft) S-SW 202 12,9 C 20,9 C 3,5 km/h (1 Bft)
23.05.2012 13:40 20,1 C 64 % 0,0 l/m 3,4 km/h (1 Bft) S-SO 157 13,1 C 20,8 C 0,0 km/h (0 Bft)
23.05.2012 13:45 20,2 C 64 % 0,0 l/m 2,9 km/h (1 Bft) S-SW 202 13,2 C 20,9 C 4,8 km/h (1 Bft)
23.05.2012 13:50 20,7 C 65 % 0,0 l/m 3,9 km/h (1 Bft) SO 135 13,9 C 20,9 C 4,3 km/h (1 Bft)
23.05.2012 13:55 21,4 C 63 % 0,0 l/m 4,3 km/h (1 Bft) SO 135 14,1 C 21,4 C 5,1 km/h (1 Bft)
23.05.2012 14:00 20,4 C 63 % 0,0 l/m 3,7 km/h (1 Bft) S-SO 157 13,1 C 21,3 C 7,9 km/h (2 Bft)
23.05.2012 14:05 20,0 C 64 % 0,0 l/m 3,4 km/h (1 Bft) S 180 13,0 C 21,1 C 1,9 km/h (1 Bft)
23.05.2012 14:10 19,6 C 66 % 0,0 l/m 3,2 km/h (1 Bft) O-SO 112 13,1 C 20,7 C 4,3 km/h (1 Bft)
23.05.2012 14:15 19,8 C 66 % 0,0 l/m 2,1 km/h (1 Bft) S-SO 157 13,3 C 20,7 C 0,0 km/h (0 Bft)
23.05.2012 14:20 19,7 C 66 % 0,0 l/m 1,1 km/h (1 Bft) W 270 13,2 C 20,8 C 2,4 km/h (1 Bft)
23.05.2012 14:25 21,5 C 60 % 0,0 l/m 1,9 km/h (1 Bft) S 180 13,4 C 21,4 C 2,3 km/h (1 Bft)
23.05.2012 14:30 21,2 C 58 % 0,0 l/m 1,9 km/h (1 Bft) N 360 12,6 C 22,4 C 0,0 km/h (0 Bft)
23.05.2012 14:35 22,9 C 58 % 0,0 l/m 1,8 km/h (1 Bft) O 90 14,2 C 23,1 C 3,1 km/h (1 Bft)
23.05.2012 14:40 21,8 C 58 % 0,0 l/m 3,5 km/h (1 Bft) W 270 13,2 C 23,6 C 4,5 km/h (1 Bft)
23.05.2012 14:45 23,2 C 57 % 0,0 l/m 3,4 km/h (1 Bft) O 90 14,2 C 23,9 C 0,0 km/h (0 Bft)
23.05.2012 14:50 23,0 C 55 % 0,0 l/m 2,1 km/h (1 Bft) W-SW 247 13,5 C 25,1 C 5,1 km/h (1 Bft)
23.05.2012 14:55 21,6 C 57 % 0,0 l/m 1,4 km/h (1 Bft) N 360 12,7 C 24,2 C 0,0 km/h (0 Bft)
23.05.2012 15:00 20,6 C 59 % 0,0 l/m 2,3 km/h (1 Bft) O-SO 112 12,3 C 23,0 C 4,3 km/h (1 Bft)
23.05.2012 15:05 20,1 C 62 % 0,0 l/m 1,9 km/h (1 Bft) N-NO 22 12,6 C 22,3 C 0,0 km/h (0 Bft)
23.05.2012 15:10 20,2 C 65 % 0,0 l/m 1,3 km/h (1 Bft) N-NO 22 13,4 C 21,8 C 1,8 km/h (1 Bft)
23.05.2012 15:15 20,4 C 63 % 0,0 l/m 1,0 km/h (0 Bft) S-SO 157 13,1 C 21,6 C 2,1 km/h (1 Bft)
23.05.2012 15:21 20,7 C 62 % 0,0 l/m 0,5 km/h (0 Bft) S 180 13,2 C 21,7 C 0,0 km/h (0 Bft)
23.05.2012 15:25 20,7 C 62 % 0,0 l/m 0,5 km/h (0 Bft) S 180 13,2 C 21,7 C 0,0 km/h (0 Bft)
23.05.2012 15:30 21,5 C 60 % 0,0 l/m 0,6 km/h (0 Bft) S-SW 202 13,4 C 22,2 C 0,0 km/h (0 Bft)
23.05.2012 15:35 21,4 C 59 % 0,0 l/m 1,1 km/h (1 Bft) S-SO 157 13,0 C 22,7 C 2,3 km/h (1 Bft)
23.05.2012 15:40 20,9 C 59 % 0,0 l/m 1,9 km/h (1 Bft) N-NW 337 12,6 C 22,5 C 3,4 km/h (1 Bft)
23.05.2012 15:45 20,5 C 61 % 0,0 l/m 1,8 km/h (1 Bft) W-SW 247 12,7 C 22,3 C 2,7 km/h (1 Bft)
23.05.2012 15:50 20,3 C 63 % 0,0 l/m 1,6 km/h (1 Bft) SO 135 13,0 C 22,0 C 0,0 km/h (0 Bft)
23.05.2012 15:55 20,4 C 62 % 0,0 l/m 1,6 km/h (1 Bft) SO 135 12,9 C 22,0 C 0,0 km/h (0 Bft)
23.05.2012 16:00 20,7 C 62 % 0,0 l/m 1,6 km/h (1 Bft) SO 135 13,2 C 22,0 C 0,0 km/h (0 Bft)
23.05.2012 16:05 22,1 C 61 % 0,0 l/m 0,0 km/h (0 Bft) SO 135 14,2 C 22,0 C 0,0 km/h (0 Bft)
23.05.2012 16:10 23,0 C 53 % 0,0 l/m 0,0 km/h (0 Bft) SO 135 12,9 C 22,0 C 0,0 km/h (0 Bft)
23.05.2012 16:15 23,2 C 53 % 0,0 l/m 0,0 km/h (0 Bft) SO 135 13,1 C 22,0 C 0,0 km/h (0 Bft)
23.05.2012 16:20 23,3 C 53 % 0,0 l/m 0,0 km/h (0 Bft) SO 135 13,2 C 22,0 C 0,0 km/h (0 Bft)
23.05.2012 16:25 23,5 C 54 % 0,0 l/m 0,0 km/h (0 Bft) SO 135 13,6 C 22,0 C 0,0 km/h (0 Bft)
23.05.2012 16:30 23,1 C 54 % 0,0 l/m 0,0 km/h (0 Bft) SO 135 13,3 C 22,0 C 0,0 km/h (0 Bft)
23.05.2012 16:35 23,1 C 54 % 0,0 l/m 0,0 km/h (0 Bft) SO 135 13,3 C 22,0 C 0,0 km/h (0 Bft)
23.05.2012 16:40 22,7 C 52 % 0,0 l/m 3,4 km/h (1 Bft) S 180 12,3 C 26,4 C 3,4 km/h (1 Bft)
23.05.2012 16:45 22,3 C 53 % 0,0 l/m 3,1 km/h (1 Bft) S 180 12,2 C 26,8 C 6,1 km/h (2 Bft)
23.05.2012 16:50 22,2 C 55 % 0,0 l/m 2,6 km/h (1 Bft) S 180 12,7 C 27,0 C 3,5 km/h (1 Bft)
23.05.2012 16:55 22,2 C 55 % 0,0 l/m 3,5 km/h (1 Bft) O-SO 112 12,7 C 27,1 C 10,3 km/h (2 Bft)
23.05.2012 17:00 22,1 C 55 % 0,0 l/m 3,9 km/h (1 Bft) SO 135 12,6 C 26,6 C 4,7 km/h (1 Bft)
23.05.2012 17:05 21,9 C 53 % 0,0 l/m 3,9 km/h (1 Bft) S 180 11,9 C 26,5 C 3,7 km/h (1 Bft)
23.05.2012 17:10 21,9 C 54 % 0,0 l/m 2,3 km/h (1 Bft) S 180 12,2 C 27,3 C 5,5 km/h (1 Bft)
23.05.2012 17:15 21,9 C 49 % 0,0 l/m 2,3 km/h (1 Bft) SO 135 10,7 C 27,3 C 3,4 km/h (1 Bft)
23.05.2012 17:20 21,8 C 49 % 0,0 l/m 3,7 km/h (1 Bft) SW 225 10,6 C 27,2 C 7,7 km/h (2 Bft)
23.05.2012 17:25 21,8 C 49 % 0,0 l/m 3,9 km/h (1 Bft) S 180 10,6 C 26,9 C 3,2 km/h (1 Bft)
23.05.2012 17:30 21,7 C 48 % 0,0 l/m 3,7 km/h (1 Bft) W 270 10,2 C 27,2 C 5,1 km/h (1 Bft)
23.05.2012 17:35 21,8 C 49 % 0,0 l/m 3,4 km/h (1 Bft) S-SW 202 10,6 C 27,2 C 5,0 km/h (1 Bft)
23.05.2012 17:40 21,7 C 50 % 0,0 l/m 3,7 km/h (1 Bft) SW 225 10,8 C 27,1 C 2,7 km/h (1 Bft)
23.05.2012 17:45 21,7 C 51 % 0,0 l/m 3,4 km/h (1 Bft) N-NW 337 11,1 C 27,2 C 4,5 km/h (1 Bft)
23.05.2012 17:50 21,6 C 52 % 0,0 l/m 3,1 km/h (1 Bft) W-NW 292 11,3 C 27,0 C 4,0 km/h (1 Bft)
23.05.2012 17:55 21,6 C 52 % 0,0 l/m 3,1 km/h (1 Bft) W-NW 292 11,3 C 26,7 C 6,0 km/h (2 Bft)
23.05.2012 18:00 21,6 C 54 % 0,0 l/m 3,1 km/h (1 Bft) W 270 11,9 C 26,7 C 5,3 km/h (1 Bft)
23.05.2012 18:05 21,7 C 54 % 0,0 l/m 3,5 km/h (1 Bft) W-SW 247 12,0 C 26,7 C 8,2 km/h (2 Bft)
23.05.2012 18:10 21,8 C 53 % 0,0 l/m 4,0 km/h (1 Bft) S-SW 202 11,8 C 26,4 C 1,8 km/h (1 Bft)
23.05.2012 18:15 21,9 C 53 % 0,0 l/m 3,7 km/h (1 Bft) NW 315 11,9 C 26,6 C 3,4 km/h (1 Bft)
23.05.2012 18:20 21,6 C 53 % 0,0 l/m 3,5 km/h (1 Bft) S-SW 202 11,6 C 26,0 C 3,2 km/h (1 Bft)
23.05.2012 18:25 21,6 C 54 % 0,0 l/m 2,7 km/h (1 Bft) SO 135 11,9 C 25,9 C 3,1 km/h (1 Bft)
23.05.2012 18:30 21,8 C 56 % 0,0 l/m 1,6 km/h (1 Bft) SO 135 12,6 C 25,6 C 0,0 km/h (0 Bft)
23.05.2012 18:35 22,0 C 55 % 0,0 l/m 2,3 km/h (1 Bft) SO 135 12,5 C 25,8 C 4,5 km/h (1 Bft)
23.05.2012 18:40 21,4 C 54 % 0,0 l/m 2,6 km/h (1 Bft) S-SW 202 11,7 C 25,0 C 2,6 km/h (1 Bft)
23.05.2012 18:45 21,3 C 55 % 0,0 l/m 2,4 km/h (1 Bft) SO 135 11,9 C 24,2 C 2,4 km/h (1 Bft)
23.05.2012 18:50 21,5 C 58 % 0,0 l/m 1,1 km/h (1 Bft) S-SO 157 12,9 C 23,6 C 1,6 km/h (1 Bft)
23.05.2012 18:55 21,8 C 58 % 0,0 l/m 0,6 km/h (0 Bft) O-SO 112 13,2 C 23,5 C 0,0 km/h (0 Bft)
23.05.2012 19:00 22,1 C 56 % 0,0 l/m 1,1 km/h (1 Bft) S 180 12,9 C 24,1 C 2,1 km/h (1 Bft)
23.05.2012 19:05 22,5 C 55 % 0,0 l/m 1,8 km/h (1 Bft) S-SO 157 13,0 C 24,3 C 2,9 km/h (1 Bft)
23.05.2012 19:10 22,9 C 55 % 0,0 l/m 2,1 km/h (1 Bft) S 180 13,4 C 25,6 C 4,7 km/h (1 Bft)
23.05.2012 19:15 22,9 C 52 % 0,0 l/m 2,3 km/h (1 Bft) S-SO 157 12,5 C 26,3 C 1,9 km/h (1 Bft)
23.05.2012 19:20 22,6 C 49 % 0,0 l/m 3,1 km/h (1 Bft) S-SW 202 11,3 C 26,6 C 5,3 km/h (1 Bft)
23.05.2012 19:25 22,5 C 49 % 0,0 l/m 3,2 km/h (1 Bft) S 180 11,2 C 26,4 C 4,3 km/h (1 Bft)
23.05.2012 19:30 22,1 C 49 % 0,0 l/m 4,2 km/h (1 Bft) S-SW 202 10,9 C 25,4 C 6,1 km/h (2 Bft)
23.05.2012 19:35 22,0 C 51 % 0,0 l/m 4,5 km/h (1 Bft) S 180 11,4 C 24,9 C 7,7 km/h (2 Bft)
23.05.2012 19:40 21,7 C 51 % 0,0 l/m 4,3 km/h (1 Bft) SO 135 11,1 C 24,1 C 6,1 km/h (2 Bft)
23.05.2012 19:45 21,4 C 52 % 0,0 l/m 3,4 km/h (1 Bft) S-SO 157 11,1 C 23,4 C 1,9 km/h (1 Bft)
23.05.2012 19:50 21,0 C 54 % 0,0 l/m 2,4 km/h (1 Bft) SO 135 11,3 C 22,6 C 2,6 km/h (1 Bft)
23.05.2012 19:55 20,8 C 55 % 0,0 l/m 2,4 km/h (1 Bft) S 180 11,4 C 22,1 C 4,8 km/h (1 Bft)
23.05.2012 20:00 20,6 C 55 % 0,0 l/m 2,9 km/h (1 Bft) S-SW 202 11,2 C 21,6 C 8,5 km/h (2 Bft)
23.05.2012 20:05 20,5 C 55 % 0,0 l/m 3,4 km/h (1 Bft) SO 135 11,1 C 21,4 C 5,0 km/h (1 Bft)
23.05.2012 20:10 20,4 C 56 % 0,0 l/m 3,1 km/h (1 Bft) SO 135 11,3 C 21,3 C 4,2 km/h (1 Bft)
23.05.2012 20:15 20,2 C 57 % 0,0 l/m 2,9 km/h (1 Bft) S-SO 157 11,4 C 21,1 C 4,7 km/h (1 Bft)
23.05.2012 20:20 20,0 C 63 % 0,0 l/m 3,5 km/h (1 Bft) O-SO 112 12,7 C 20,8 C 6,6 km/h (2 Bft)
23.05.2012 20:25 19,9 C 63 % 0,0 l/m 3,9 km/h (1 Bft) SO 135 12,6 C 20,7 C 3,2 km/h (1 Bft)
23.05.2012 20:30 19,7 C 64 % 0,0 l/m 3,5 km/h (1 Bft) O-SO 112 12,7 C 20,5 C 2,1 km/h (1 Bft)
23.05.2012 20:35 19,4 C 65 % 0,0 l/m 3,1 km/h (1 Bft) O-SO 112 12,6 C 20,5 C 7,9 km/h (2 Bft)
23.05.2012 20:40 19,0 C 65 % 0,0 l/m 4,8 km/h (1 Bft) O-SO 112 12,3 C 19,9 C 5,3 km/h (1 Bft)
23.05.2012 20:45 18,7 C 66 % 0,0 l/m 5,8 km/h (2 Bft) O-SO 112 12,2 C 19,6 C 8,5 km/h (2 Bft)
23.05.2012 20:50 18,4 C 67 % 0,0 l/m 4,5 km/h (1 Bft) O 90 12,2 C 19,1 C 4,3 km/h (1 Bft)
23.05.2012 20:55 18,3 C 68 % 0,0 l/m 4,2 km/h (1 Bft) SO 135 12,3 C 18,9 C 6,9 km/h (2 Bft)
23.05.2012 21:00 18,3 C 69 % 0,0 l/m 5,0 km/h (1 Bft) N-NW 337 12,5 C 18,7 C 9,2 km/h (2 Bft)
23.05.2012 21:05 18,1 C 69 % 0,0 l/m 5,5 km/h (1 Bft) S-SO 157 12,3 C 18,5 C 4,8 km/h (1 Bft)
23.05.2012 21:10 17,9 C 70 % 0,0 l/m 6,1 km/h (2 Bft) SO 135 12,3 C 18,3 C 8,9 km/h (2 Bft)
23.05.2012 21:15 17,9 C 70 % 0,0 l/m 6,9 km/h (2 Bft) S-SO 157 12,3 C 18,1 C 14,6 km/h (3 Bft)
23.05.2012 21:20 17,8 C 68 % 0,0 l/m 7,2 km/h (2 Bft) N 360 11,8 C 17,7 C 13,2 km/h (3 Bft)
23.05.2012 21:25 17,4 C 68 % 0,0 l/m 6,1 km/h (2 Bft) N-NO 22 11,4 C 17,9 C 4,5 km/h (1 Bft)
23.05.2012 21:30 17,4 C 69 % 0,0 l/m 4,3 km/h (1 Bft) W 270 11,7 C 17,6 C 5,0 km/h (1 Bft)
23.05.2012 21:35 17,7 C 66 % 0,0 l/m 4,0 km/h (1 Bft) N 360 11,3 C 17,7 C 3,1 km/h (1 Bft)
23.05.2012 21:40 17,6 C 68 % 0,0 l/m 4,8 km/h (1 Bft) S 180 11,6 C 17,7 C 12,1 km/h (2 Bft)
23.05.2012 21:45 17,6 C 69 % 0,0 l/m 5,6 km/h (1 Bft) O-SO 112 11,8 C 17,8 C 8,7 km/h (2 Bft)
23.05.2012 21:50 17,2 C 70 % 0,0 l/m 5,0 km/h (1 Bft) S-SO 157 11,7 C 17,7 C 17,7 km/h (3 Bft)
23.05.2012 21:55 17,1 C 70 % 0,0 l/m 2,1 km/h (1 Bft) N-NO 22 11,6 C 17,6 C 0,0 km/h (0 Bft)
23.05.2012 22:00 16,5 C 74 % 0,0 l/m 2,1 km/h (1 Bft) N-NW 337 11,8 C 16,9 C 4,7 km/h (1 Bft)
23.05.2012 22:05 15,5 C 76 % 0,0 l/m 3,5 km/h (1 Bft) N-NW 337 11,3 C 15,9 C 6,1 km/h (2 Bft)
23.05.2012 22:10 14,5 C 77 % 0,0 l/m 6,1 km/h (2 Bft) O 90 10,5 C 15,0 C 5,3 km/h (1 Bft)
23.05.2012 22:15 14,1 C 81 % 0,0 l/m 6,1 km/h (2 Bft) O 90 10,9 C 15,0 C 5,3 km/h (1 Bft)
23.05.2012 22:20 13,9 C 82 % 0,0 l/m 2,3 km/h (1 Bft) N-NO 22 10,9 C 13,8 C 13,7 km/h (3 Bft)
23.05.2012 22:25 14,2 C 81 % 0,0 l/m 4,7 km/h (1 Bft) W-SW 247 11,0 C 13,8 C 15,3 km/h (3 Bft)
23.05.2012 22:30 13,8 C 80 % 0,0 l/m 6,1 km/h (2 Bft) N-NW 337 10,4 C 13,4 C 5,5 km/h (1 Bft)
23.05.2012 22:35 13,0 C 83 % 2,1 l/m 4,7 km/h (1 Bft) W-SW 247 10,2 C 13,1 C 3,2 km/h (1 Bft)
23.05.2012 22:40 12,8 C 87 % 0,0 l/m 2,7 km/h (1 Bft) SO 135 10,7 C 12,7 C 4,0 km/h (1 Bft)
23.05.2012 22:45 12,7 C 87 % 0,0 l/m 2,9 km/h (1 Bft) W-SW 247 10,6 C 12,5 C 9,5 km/h (2 Bft)
23.05.2012 22:50 12,5 C 88 % 0,0 l/m 2,7 km/h (1 Bft) W 270 10,6 C 12,4 C 3,5 km/h (1 Bft)
23.05.2012 22:55 12,5 C 88 % 0,0 l/m 2,9 km/h (1 Bft) S-SW 202 10,6 C 12,3 C 2,7 km/h (1 Bft)
23.05.2012 23:00 12,4 C 88 % 0,0 l/m 2,1 km/h (1 Bft) N-NW 337 10,5 C 12,3 C 0,0 km/h (0 Bft)
23.05.2012 23:05 12,4 C 88 % 0,7 l/m 0,8 km/h (0 Bft) S-SO 157 10,5 C 12,3 C 0,0 km/h (0 Bft)
23.05.2012 23:10 12,4 C 89 % 0,7 l/m 1,0 km/h (0 Bft) O-NO 67 10,6 C 12,3 C 5,6 km/h (1 Bft)
23.05.2012 23:15 12,4 C 89 % 0,0 l/m 1,8 km/h (1 Bft) N-NO 22 10,6 C 12,3 C 4,8 km/h (1 Bft)
23.05.2012 23:20 12,5 C 90 % 0,7 l/m 2,9 km/h (1 Bft) N-NO 22 10,9 C 12,4 C 1,8 km/h (1 Bft)
23.05.2012 23:25 12,5 C 90 % 0,0 l/m 2,9 km/h (1 Bft) S-SO 157 10,9 C 12,4 C 1,8 km/h (1 Bft)
23.05.2012 23:30 12,4 C 91 % 0,0 l/m 2,4 km/h (1 Bft) NO 45 11,0 C 12,4 C 5,3 km/h (1 Bft)
23.05.2012 23:35 12,4 C 91 % 0,0 l/m 2,4 km/h (1 Bft) N-NO 22 11,0 C 12,3 C 4,2 km/h (1 Bft)
23.05.2012 23:40 12,3 C 91 % 0,0 l/m 1,8 km/h (1 Bft) O-SO 112 10,9 C 12,3 C 0,0 km/h (0 Bft)
23.05.2012 23:45 12,3 C 91 % 0,0 l/m 1,1 km/h (1 Bft) N 360 10,9 C 12,3 C 2,3 km/h (1 Bft)
23.05.2012 23:50 12,2 C 92 % 0,0 l/m 0,8 km/h (0 Bft) O 90 10,9 C 12,3 C 0,0 km/h (0 Bft)
23.05.2012 23:55 12,1 C 92 % 0,0 l/m 1,3 km/h (1 Bft) O-SO 112 10,8 C 12,2 C 3,5 km/h (1 Bft)
_ Min-Zeit 00:25 17:30 - 16:35 - - 00:25 00:25 23:50
Minimum _ 11,4 C 48 % - 0,0 km/h (0 Bft) - - 10,1 C 11,3 C 0,0 km/h (0 Bft)
_ Max-Zeit 16:25 06:55 22:35 21:20 - - 11:00 17:15 21:50
Maximum _ 23,5 C 94 % 2,1 l/m 7,2 km/h
N (2 Bft)
- - 15,6 C 27,3 C 17,7 km/h
S-SO (3 Bft)
Durchschnitt _ 16,7 C 77 % #4,8 l/m 2,4 km/h (1 Bft) O-SO - 12,2 C 17,6 C 3,5 km/h (1 Bft)